Retour au catalogue

NAVSTAR 19

USA 54

ActifNavigationMEO
NORAD 20533·PAYLOAD·🇺🇸 United States

Lancé Mar 26, 1990 depuis Cape Canaveral Space Force Station

Loading…

Prochains Passages (prochaines 24 heures)

TLE

FraisSource: Space-Track

Époque: Sep 14, 2026, 11:56 UTC

1 20533U 90025A   26257.49749687  .00000011  00000-0  00000-0 0  9997
2 20533  53.4271 242.2148 0047167 229.0379 309.5129  1.91038690256725

Suivez NAVSTAR 19 en temps réel avec AllMySat

Download on the App Store